Tracking 30923 objects as of 1-Jul-2025
HD Live streaming from Space Station
objects crossing your sky now

STARLINK-5239

Track STARLINK-5239 now!
10-day predictions
STARLINK-5239 is classified as:


NORAD ID: 54183
Int'l Code: 2022-141AC
Perigee: 546.0 km
Apogee: 547.8 km
Inclination: 53.2 °
Period: 95.4 minutes
Semi major axis: 6917 km
RCS: Unknown
Launch date: October 28, 2022
Source: United States (US)
Launch site: AIR FORCE WESTERN TEST RANGE (AFWTR)
Your satellite tracking list
Your tracking list is empty




NASA's NSSDC Master Catalog

Two Line Element Set (TLE):
1 54183U 22141AC  25181.91542217  .00000702  00000-0  62206-4 0  9998
2 54183  53.2175  53.9973 0001318  89.7339 270.3804 15.08846508147858
Source of the keplerian elements: AFSPC